User: anonymous
Location: Prairie State College
(41.5244°N, 87.6382°W)
Time: 00:00:31
(UTC-05:00)
Language:

ARGOS Delta rocket - Orbit

View from above orbital plane
View from above orbital plane
View from above satellite
View from above satellite

Ground track
Ground track

The orbit data is extracted from the following two-line orbital elements,

1 25637U 99008D   14210.83568498  .00000065  00000-0  23701-4 0  5396
2 25637 096.4752 342.6878 0144319 031.8582 119.6667 14.45914569813359
Epoch (UTC): 29 July 2014 20:03:23
Eccentricity: 0.0144319
inclination: 96.4752°
perigee height: 636 km
apogee height: 842 km
right ascension of ascending node: 342.6878°
argument of perigee: 31.8582°
revolutions per day: 14.45914569
mean anomaly at epoch: 119.6667°
orbit number at epoch: 81335

The dashed part of the orbit path shows where the satellite is in the earth's shadow,  

DLR